Weather History for Waseca, MN

Change the Weather History Date:

Monday, January 27, 2014

  Actual Average Record
Temperature  
Mean Temperature -9 °F -  
Max Temperature -4 °F 18 °F 45 °F (1934)
Min Temperature -14 °F 0 °F -25 °F (1925)
Degree Days  
Heating Degree Days 74    
Moisture  
Dew Point -16 °F    
Average Humidity 70    
Maximum Humidity 77    
Minimum Humidity 65    
Precipitation  
Precipitation 0.00 in - - ()
Sea Level Pressure  
Sea Level Pressure 30.35 in    
Wind  
Wind Speed 20 mph (WNW)    
Max Wind Speed 31 mph    
Max Gust Speed 38 mph    
Visibility 8 miles    
Events Snow    
Averages and records for this station are not official NWS values.
T = Trace of Precipitation, MM = Missing Value Source: NWS Daily Summary

Daily Weather History Graph

Daily Weather History Graph

Search for Another Location

Airport:

Trip Planner

Search our weather history database for the weather conditions in past years. The results will help you decide how hot, cold, wet, or windy it might be!

Date:

Astronomy

Jan. 27, 2014 Rise Set
Actual Time 7:36 AM CST 5:17 PM CST
Civil Twilight 7:05 AM CST 5:48 PM CST
Nautical Twilight 6:30 AM CST 6:23 PM CST
Astronomical Twilight 5:56 AM CST 6:57 PM CST
Moon 4:20 AM CST (1/27) 2:02 PM CST (1/27)
Length of Visible Light 10h 42m
Length of Day
9h 40m
Waning Crescent, 14% of the Moon is Illuminated
Jan 27
Waning Crescent
Jan 30
New
Feb 6
First Quarter
Feb 14
Full
Feb 22
Last Quarter

Hourly Weather History & Observations

Time (CST) Temp. Windchill Dew Point Humidity Pressure Visibility Wind Dir Wind Speed Gust Speed Precip Events Conditions
12:15 AM -4.0 °F -30.9 °F -11.2 °F 71% 30.12 in 3.0 mi WNW 28.8 mph 32.2 mph N/A   Haze
12:35 AM -4.0 °F -28.6 °F -11.2 °F 71% 30.13 in 5.0 mi WNW 23.0 mph 34.5 mph N/A   Haze
12:55 AM -4.0 °F -29.1 °F -11.2 °F 71% 30.14 in 4.0 mi WNW 24.2 mph 34.5 mph N/A   Haze
1:15 AM -5.8 °F -34.1 °F -13.0 °F 71% 30.14 in 2.0 mi WNW 31.1 mph 38.0 mph N/A Snow Light Snow
1:35 AM -5.8 °F -32.9 °F -13.0 °F 71% 30.15 in 4.0 mi WNW 27.6 mph 35.7 mph N/A   Haze
1:56 AM -5.8 °F -31.5 °F -13.0 °F 71% 30.17 in 3.0 mi WNW 24.2 mph 33.4 mph N/A   Haze
2:15 AM -5.8 °F -31.5 °F -13.0 °F 71% 30.18 in 7.0 mi WNW 24.2 mph 32.2 mph N/A   Mostly Cloudy
2:35 AM -5.8 °F -31.0 °F -14.8 °F 65% 30.20 in 7.0 mi WNW 23.0 mph 29.9 mph N/A   Overcast
2:56 AM -5.8 °F -30.5 °F -14.8 °F 65% 30.21 in 7.0 mi WNW 21.9 mph 28.8 mph N/A   Overcast
3:15 AM -5.8 °F -32.9 °F -14.8 °F 65% 30.21 in 5.0 mi WNW 27.6 mph 36.8 mph N/A   Haze
3:35 AM -7.6 °F -33.4 °F -16.6 °F 65% 30.22 in 5.0 mi WNW 23.0 mph 29.9 mph N/A   Haze
3:55 AM -9.4 °F -36.8 °F -16.6 °F 71% 30.23 in 7.0 mi WNW 25.3 mph 29.9 mph N/A   Overcast
4:15 AM -9.4 °F -34.7 °F -16.6 °F 71% 30.23 in 7.0 mi WNW 20.7 mph 29.9 mph N/A   Overcast
4:36 AM -9.4 °F -36.8 °F -16.6 °F 71% 30.24 in 5.0 mi WNW 25.3 mph 32.2 mph N/A   Haze
4:56 AM -9.4 °F -37.3 °F -16.6 °F 71% 30.25 in 5.0 mi WNW 26.5 mph 34.5 mph N/A   Haze
5:15 AM -9.4 °F -35.8 °F -16.6 °F 71% 30.25 in 7.0 mi NW 23.0 mph 29.9 mph N/A   Overcast
5:36 AM -9.4 °F -35.8 °F -16.6 °F 71% 30.26 in 10.0 mi NW 23.0 mph 33.4 mph N/A   Mostly Cloudy
5:55 AM -9.4 °F -33.5 °F -16.6 °F 71% 30.28 in 7.0 mi WNW 18.4 mph 32.2 mph N/A   Mostly Cloudy
6:15 AM -9.4 °F -33.5 °F -18.4 °F 65% 30.29 in 10.0 mi WNW 18.4 mph 21.9 mph N/A   Mostly Cloudy
6:36 AM -9.4 °F -34.7 °F -16.6 °F 71% 30.30 in 10.0 mi NW 20.7 mph 27.6 mph N/A   Overcast
6:56 AM -9.4 °F -33.5 °F -16.6 °F 71% 30.31 in 10.0 mi WNW 18.4 mph 25.3 mph N/A   Overcast
7:15 AM -9.4 °F -35.2 °F -16.6 °F 71% 30.32 in 10.0 mi WNW 21.9 mph - N/A   Overcast
7:35 AM -9.4 °F -33.5 °F -16.6 °F 71% 30.32 in 5.0 mi NW 18.4 mph 29.9 mph N/A   Haze
7:55 AM -9.4 °F -34.7 °F -18.4 °F 65% 30.33 in 10.0 mi NW 20.7 mph 27.6 mph N/A   Overcast
8:15 AM -9.4 °F -32.8 °F -18.4 °F 65% 30.34 in 7.0 mi WNW 17.3 mph - N/A   Overcast
8:35 AM -9.4 °F -32.1 °F -16.6 °F 71% 30.35 in 2.0 mi WNW 16.1 mph 20.7 mph N/A   Haze
8:56 AM -9.4 °F -29.8 °F -16.6 °F 71% 30.36 in 7.0 mi WNW 12.7 mph 23.0 mph N/A   Overcast
9:15 AM -9.4 °F -32.8 °F -16.6 °F 71% 30.37 in 2.5 mi WNW 17.3 mph 21.9 mph N/A   Haze
9:35 AM -9.4 °F -33.5 °F -16.6 °F 71% 30.38 in 4.0 mi NW 18.4 mph 27.6 mph N/A   Haze
9:56 AM -9.4 °F -34.1 °F -16.6 °F 71% 30.39 in 2.5 mi WNW 19.6 mph - N/A   Haze
10:16 AM -7.6 °F -31.1 °F -16.6 °F 65% 30.39 in 7.0 mi WNW 18.4 mph 25.3 mph N/A   Mostly Cloudy
10:35 AM -5.8 °F -28.8 °F -14.8 °F 65% 30.40 in 10.0 mi NW 18.4 mph - N/A   Clear
10:55 AM -5.8 °F -29.4 °F -14.8 °F 65% 30.40 in 10.0 mi WNW 19.6 mph 23.0 mph N/A   Clear
11:16 AM -5.8 °F -29.4 °F -14.8 °F 65% 30.41 in 10.0 mi WNW 19.6 mph - N/A   Clear
11:36 AM -5.8 °F -28.8 °F -14.8 °F 65% 30.41 in 10.0 mi WNW 18.4 mph - N/A   Clear
11:56 AM -5.8 °F -29.4 °F -14.8 °F 65% 30.41 in 10.0 mi WNW 19.6 mph - N/A   Clear
12:15 PM -5.8 °F -29.4 °F -14.8 °F 65% 30.41 in 10.0 mi WNW 19.6 mph - N/A   Clear
12:35 PM -5.8 °F -28.2 °F -14.8 °F 65% 30.41 in 10.0 mi West 17.3 mph 21.9 mph N/A   Scattered Clouds
12:56 PM -4.0 °F -25.8 °F -13.0 °F 65% 30.41 in 10.0 mi WNW 17.3 mph - N/A   Scattered Clouds
1:16 PM -4.0 °F -24.5 °F -13.0 °F 65% 30.41 in 10.0 mi WNW 15.0 mph - N/A   Scattered Clouds
1:35 PM -4.0 °F -25.2 °F -13.0 °F 65% 30.41 in 10.0 mi WNW 16.1 mph - N/A   Scattered Clouds
1:56 PM -4.0 °F -25.8 °F -13.0 °F 65% 30.41 in 10.0 mi West 17.3 mph - N/A   Scattered Clouds
2:16 PM -4.0 °F -25.2 °F -13.0 °F 65% 30.40 in 10.0 mi West 16.1 mph - N/A   Scattered Clouds
2:36 PM -4.0 °F -25.8 °F -13.0 °F 65% 30.41 in 5.0 mi West 17.3 mph 20.7 mph N/A   Haze
2:55 PM -4.0 °F -23.7 °F -11.2 °F 71% 30.40 in 4.0 mi WNW 13.8 mph - N/A   Haze
3:16 PM -4.0 °F -23.7 °F -13.0 °F 65% 30.40 in 10.0 mi WNW 13.8 mph - N/A   Scattered Clouds
3:36 PM -4.0 °F -25.8 °F -13.0 °F 65% 30.41 in 10.0 mi West 17.3 mph - N/A   Scattered Clouds
3:55 PM -4.0 °F -24.5 °F -13.0 °F 65% 30.41 in 10.0 mi West 15.0 mph - N/A   Clear
4:15 PM -4.0 °F -25.2 °F -13.0 °F 65% 30.41 in 5.0 mi West 16.1 mph - N/A   Haze
4:36 PM -5.8 °F -26.0 °F -13.0 °F 71% 30.42 in 10.0 mi WNW 13.8 mph - N/A   Scattered Clouds
4:55 PM -5.8 °F -23.4 °F -14.8 °F 65% 30.41 in 10.0 mi WNW 10.4 mph - N/A   Clear
5:16 PM -5.8 °F -21.2 °F -13.0 °F 71% 30.41 in 10.0 mi WNW 8.1 mph - N/A   Clear
5:36 PM -5.8 °F -21.2 °F -13.0 °F 71% 30.41 in 10.0 mi West 8.1 mph - N/A   Clear
5:55 PM -5.8 °F -21.2 °F -13.0 °F 71% 30.41 in 10.0 mi West 8.1 mph - N/A   Clear
6:16 PM -7.6 °F -20.6 °F -14.8 °F 71% 30.42 in 10.0 mi West 5.8 mph - N/A   Clear
6:36 PM -5.8 °F -22.4 °F -13.0 °F 71% 30.43 in 10.0 mi West 9.2 mph - N/A   Clear
6:56 PM -9.4 °F -25.6 °F -14.8 °F 77% 30.43 in 10.0 mi West 8.1 mph - N/A   Clear
7:15 PM -9.4 °F -22.7 °F -14.8 °F 77% 30.43 in 10.0 mi West 5.8 mph - N/A   Clear
7:36 PM -9.4 °F -25.6 °F -14.8 °F 77% 30.43 in 5.0 mi West 8.1 mph - N/A   Haze
7:56 PM -9.4 °F -22.7 °F -14.8 °F 77% 30.43 in 10.0 mi West 5.8 mph - N/A   Clear
8:16 PM -13.0 °F -27.0 °F -18.4 °F 77% 30.43 in 10.0 mi West 5.8 mph - N/A   Clear
8:35 PM -13.0 °F -27.0 °F -18.4 °F 77% 30.43 in 10.0 mi West 5.8 mph - N/A   Clear
8:56 PM -14.8 °F -29.1 °F -20.2 °F 77% 30.42 in 10.0 mi WSW 5.8 mph - N/A   Clear
9:15 PM -14.8 °F -29.1 °F -20.2 °F 77% 30.42 in 10.0 mi SSW 5.8 mph - N/A   Clear
9:36 PM -14.8 °F -27.2 °F -20.2 °F 77% 30.42 in 10.0 mi SW 4.6 mph - N/A   Clear
9:55 PM -14.8 °F -30.8 °F -20.2 °F 77% 30.42 in 10.0 mi SW 6.9 mph - N/A   Clear
10:15 PM -14.8 °F -29.1 °F -20.2 °F 77% 30.42 in 10.0 mi SW 5.8 mph - N/A   Clear
10:35 PM -14.8 °F -30.8 °F -20.2 °F 77% 30.41 in 10.0 mi SW 6.9 mph - N/A   Clear
10:55 PM -14.8 °F -29.1 °F -22.0 °F 70% 30.40 in 10.0 mi WSW 5.8 mph - N/A   Clear
11:15 PM -14.8 °F -29.1 °F -22.0 °F 70% 30.40 in 10.0 mi SW 5.8 mph - N/A   Clear
11:35 PM -14.8 °F -30.8 °F -22.0 °F 70% 30.39 in 10.0 mi WSW 6.9 mph - N/A   Clear
11:55 PM -14.8 °F -27.2 °F -22.0 °F 70% 30.39 in 10.0 mi WSW 4.6 mph - N/A   Clear